Tracking 19477 objects as of 16-Jan-2019
HD Live streaming from Space Station
objects crossing your sky now

MAROC TUBSAT

Track MAROC TUBSAT now!
10-day predictions
MAROC TUBSAT is classified as:


NORAD ID: 27004
Int'l Code: 2001-056D
Perigee: 992.2 km
Apogee: 1,020.3 km
Inclination: 99.4 °
Period: 105.1 minutes
Semi major axis: 7377 km
RCS: 0.3575 m2 (medium)
Launch date: December 10, 2001
Source: Germany (GER)
Launch site: TYURATAM MISSILE AND SPACE COMPLEX (TTMTR)
aabbcc
Your satellite tracking list
Your tracking list is empty




NASA's NSSDC Master Catalog

Two Line Element Set (TLE):
1 27004U 01056D   19015.19425064 -.00000031  00000-0  14426-4 0  9998
2 27004  99.4394 151.5844 0019005 280.0266 202.4525 13.70132568855060
Source of the keplerian elements: AFSPC